Stations météo

réclame
Mon MeteoGroup
Bournemouth Airport, Grande-Bretagne (3862): Température de l'air & dewpoint: 12.10.2018 02:00:00 - 18.10.2018 02:00:00 (BST)Bournemouth Airport, Grande-Bretagne (3862): Température de l'air -20cm & Température de l'air -100cm: 12.10.2018 02:00:00 - 18.10.2018 02:00:00 (BST)Bournemouth Airport, Grande-Bretagne (3862): Vitesse du vent & gusts: 12.10.2018 02:00:00 - 18.10.2018 02:00:00 (BST)Bournemouth Airport, Grande-Bretagne (3862): Direction du vent: 12.10.2018 02:00:00 - 18.10.2018 02:00:00 (BST)Bournemouth Airport, Grande-Bretagne (3862): reduced air pressure: 12.10.2018 02:00:00 - 18.10.2018 02:00:00 (BST)Bournemouth Airport, Grande-Bretagne (3862): visibility: 12.10.2018 02:00:00 - 18.10.2018 02:00:00 (BST)Bournemouth Airport, Grande-Bretagne (3862): Ensoleillement: 12.10.2018 02:00:00 - 18.10.2018 02:00:00 (BST)Bournemouth Airport, Grande-Bretagne (3862): Quantités de précipitations: 12.10.2018 02:00:00 - 18.10.2018 02:00:00 (BST)
Date & Time tt [°C] td [°C] tt -20cm [°C] tt -100cm [°C] ff [km/h] ff [knt] fx [km/h] fx [knt] dd ppp [hPa] vv [km] sd [min] rr [mm]
18.10.2018 02:00:00 12,3 11,2 - - 11 6 - - NNE 1024,4 15 0 0,0
18.10.2018 01:00:00 12,9 12,0 - - 11 6 - - NNE 1024,3 13 - 0,0
18.10.2018 00:00:00 12,9 12,1 - - 8 4 - - NNE 1024,0 15 0 0,2
17.10.2018 23:00:00 13,4 12,2 - - 11 6 - - ENE 1023,8 10 0 0,0
17.10.2018 22:00:00 13,4 13,0 - - 8 4 - - NNE 1023,4 10 0 0,2
17.10.2018 21:00:00 13,2 12,9 - - 9 5 - - N 1022,7 8 0 0,0
17.10.2018 20:00:00 13,4 13,1 - - 5 3 - - NNE 1022,0 13 0 0,0
17.10.2018 19:00:00 13,6 13,3 - - 11 6 - - NNE 1021,2 2,1 0 0,0
17.10.2018 18:00:00 14,0 13,6 - - 4 2 - - ENE 1020,4 8 0 0,2
17.10.2018 17:00:00 14,1 13,4 - - 5 3 - - E 1020,0 16 0 0,0
17.10.2018 16:00:00 14,4 13,6 - - 2 1 - - ESE 1019,7 9 0 0,0
17.10.2018 15:00:00 13,9 13,5 - - 5 3 - - SSE 1019,6 5 0 0,4
17.10.2018 14:00:00 13,9 13,4 - - 5 3 - - SSW 1019,4 3,2 0 0,2
17.10.2018 13:00:00 13,7 13,2 - - 9 5 - - SSW 1019,4 5 0 0,2
17.10.2018 12:00:00 13,9 13,6 - - 11 6 - - S 1019,2 2,2 0 0,2
17.10.2018 11:00:00 13,6 13,2 - - 9 5 - - S 1018,9 5 0 0,2
17.10.2018 10:00:00 14,1 13,6 14,0 14,0 5 3 - - - 1018,7 8 0 0,0
17.10.2018 09:00:00 13,5 13,1 - - 4 2 - - S 1018,3 8 0 0,2
17.10.2018 08:00:00 13,2 12,7 - - 5 3 - - S 1017,8 4,0 0 0,6
17.10.2018 07:00:00 13,3 12,7 - - 5 3 - - SW 1017,6 10 0 0,0
17.10.2018 06:00:00 13,3 12,8 - - 8 4 - - SW 1017,3 13 0 0,2
17.10.2018 05:00:00 13,4 12,5 - - 5 3 - - S 1017,1 15 0 0,2
17.10.2018 04:00:00 13,3 11,3 - - 5 3 - - SSW 1017,0 27 0 0,0
17.10.2018 03:00:00 12,0 11,6 - - 8 4 - - S 1017,3 22 0 0,0
17.10.2018 02:00:00 9,2 8,5 - - 4 2 - - ESE 1017,5 16 0 0,0
17.10.2018 01:00:00 11,5 10,3 - - 4 2 - - SW 1017,7 19 - 0,0
17.10.2018 00:00:00 12,2 11,2 - - 5 3 - - SSW 1017,6 10 0 0,0
16.10.2018 23:00:00 13,1 12,3 - - 8 4 - - WSW 1017,7 10 0 0,0
16.10.2018 22:00:00 12,9 11,9 - - 8 4 - - WSW 1017,7 10 0 0,0
16.10.2018 21:00:00 12,9 11,6 - - 8 4 - - WSW 1017,4 20 0 0,0
16.10.2018 20:00:00 12,1 10,2 - - 8 4 - - WSW 1017,4 10 0 0,0
16.10.2018 19:00:00 14,3 11,2 - - 9 5 - - SW 1017,2 10 0 0,0
16.10.2018 18:00:00 14,5 11,0 - - 15 8 - - WSW 1016,7 22 0 0,0
16.10.2018 17:00:00 15,8 11,3 - - 18 10 - - WSW 1016,2 10 18 0,0
16.10.2018 16:00:00 15,7 13,0 - - 13 7 - - WSW 1016,2 10 0 0,0
16.10.2018 15:00:00 16,1 12,6 - - 15 8 - - WSW 1016,0 10 0 0,0
16.10.2018 14:00:00 16,6 15,1 - - 16 9 - - WSW 1015,8 8 0 0,0
16.10.2018 13:00:00 17,0 15,5 - - 13 7 - - SSW 1015,6 8 0 0,0
16.10.2018 12:00:00 16,5 16,3 - - 8 4 - - SE 1015,3 9 0 0,0
16.10.2018 11:00:00 15,2 15,2 - - 8 4 - - SSE 1015,3 5 0 0,0
16.10.2018 10:00:00 14,7 14,6 13,9 14,0 2 1 - - - 1015,3 3,0 0 0,0
16.10.2018 09:00:00 14,0 13,9 - - 4 2 - - NNW 1015,3 3,0 0 0,0
16.10.2018 08:00:00 13,2 13,2 - - 5 3 - - NE 1014,7 1,5 0 0,0
16.10.2018 07:00:00 12,9 12,8 - - 2 1 - - E 1014,5 0,9 0 0,0
16.10.2018 06:00:00 12,6 12,5 - - 5 3 - - N 1014,2 0,3 0 0,0
16.10.2018 05:00:00 12,5 12,5 - - 5 3 - - N 1014,0 0,2 0 0,0
16.10.2018 04:00:00 12,4 12,4 - - 4 2 - - ENE 1013,9 0,3 0 0,0
16.10.2018 03:00:00 12,6 12,5 - - 5 3 - - E 1014,1 0,4 0 0,0
16.10.2018 02:00:00 12,7 12,7 - - 9 5 - - ENE 1014,5 0,4 0 0,0
16.10.2018 01:00:00 12,9 12,9 - - 8 4 - - ENE 1014,5 0,3 - 0,0
16.10.2018 00:00:00 13,0 12,9 - - 5 3 - - NE 1014,5 0,8 0 0,0
15.10.2018 23:00:00 13,1 13,0 - - 5 3 - - NE 1014,2 1,2 0 0,0
15.10.2018 22:00:00 13,0 12,9 - - 9 5 - - NE 1014,0 0,7 0 0,0
15.10.2018 21:00:00 11,6 11,3 - - 5 3 - - ENE 1013,6 1,5 0 0,0
15.10.2018 20:00:00 12,3 11,9 - - 9 5 - - ENE 1013,1 6 0 0,0
15.10.2018 19:00:00 13,3 12,8 - - 4 2 - - NNE 1012,8 9 0 0,0
15.10.2018 18:00:00 13,8 13,0 - - 11 6 - - NE 1012,2 13 0 0,0
15.10.2018 17:00:00 13,9 13,1 - - 11 6 - - NE 1011,5 15 0 0,0
15.10.2018 16:00:00 13,7 12,9 - - 11 6 - - NNE 1011,0 10 0 0,0
15.10.2018 15:00:00 14,2 13,2 - - 13 7 - - NE 1010,7 18 0 0,0
15.10.2018 14:00:00 13,3 12,5 - - 15 8 - - NE 1010,5 10 0 0,0
15.10.2018 13:00:00 12,6 12,1 - - 16 9 - - NE 1010,4 20 0 0,2
15.10.2018 12:00:00 12,1 11,7 - - 16 9 - - NNE 1010,1 4,0 0 0,0
15.10.2018 11:00:00 11,8 11,4 - - 15 8 - - NNE 1009,3 10 0 0,0
15.10.2018 10:00:00 11,2 10,9 14,0 14,0 16 9 - - NNE 1008,9 9 0 0,0
15.10.2018 09:00:00 10,8 10,5 - - 16 9 - - N 1008,6 3,5 0 0,2
15.10.2018 08:00:00 10,6 10,2 - - 15 8 - - N 1008,0 4,5 0 0,0
15.10.2018 07:00:00 10,6 10,2 - - 15 8 - - NNE 1007,6 10 0 0,0
15.10.2018 06:00:00 10,5 10,0 - - 16 9 - - NNE 1007,2 18 0 0,0
15.10.2018 05:00:00 10,5 9,7 - - 11 6 - - N 1007,3 30 0 0,0
15.10.2018 04:00:00 10,3 9,6 - - 16 9 - - NNE 1006,7 30 0 0,2
15.10.2018 03:00:00 10,0 9,4 - - 22 12 - - NNE 1005,8 20 0 0,8
15.10.2018 02:00:00 10,1 9,1 - - 21 11 - - NNE 1007,2 15 0 0,0
15.10.2018 01:00:00 10,1 8,8 - - 16 9 - - NE 1007,5 28 - 0,0
15.10.2018 00:00:00 9,9 8,6 - - 18 10 - - NNE 1008,0 35 0 0,0
14.10.2018 23:00:00 9,6 8,3 - - 21 11 - - NNE 1007,6 21 0 0,0
14.10.2018 22:00:00 9,7 8,3 - - 18 10 - - NNE 1007,6 10 0 0,0
14.10.2018 21:00:00 9,4 8,6 - - 21 11 - - NNE 1007,4 15 0 0,0
14.10.2018 20:00:00 9,7 9,0 - - 21 11 - - N 1007,6 5 0 0,2
14.10.2018 19:00:00 10,4 9,4 - - 21 11 - - N 1007,7 14 0 0,0
14.10.2018 18:00:00 11,1 9,7 - - 18 10 - - N 1007,0 6 0 0,0
14.10.2018 17:00:00 11,7 9,9 - - 22 12 - - NNE 1006,4 10 0 0,0
14.10.2018 16:00:00 12,1 10,0 - - 21 11 - - NNE 1005,9 10 0 0,0
14.10.2018 15:00:00 12,0 10,0 - - 22 12 - - NNE 1005,8 10 0 0,0
14.10.2018 14:00:00 12,3 10,6 - - 24 13 - - NNE 1005,3 10 0 0,0
14.10.2018 13:00:00 12,0 10,9 - - 24 13 - - N 1006,2 10 0 0,2
14.10.2018 12:00:00 12,0 11,1 - - 22 12 - - NNW 1006,1 10 0 0,0
14.10.2018 11:00:00 12,3 11,5 - - 24 13 - - N 1004,8 10 6 0,8
14.10.2018 10:00:00 12,2 11,9 14,9 14,0 15 8 - - N 1006,0 7 0 6,4
14.10.2018 09:00:00 12,1 11,7 - - 13 7 - - NNW 1005,8 3,4 0 3,2
14.10.2018 08:00:00 12,2 11,7 - - 16 9 - - N 1005,0 4,0 0 5,0
14.10.2018 07:00:00 12,6 12,1 - - 11 6 - - - 1004,9 3,0 0 3,0
14.10.2018 06:00:00 13,3 13,0 - - 8 4 - - N 1004,6 6 0 3,0
14.10.2018 05:00:00 13,5 13,1 - - 5 3 - - NE 1006,0 5 0 3,6
14.10.2018 04:00:00 13,8 13,0 - - 2 1 - - SW 1006,4 6 0 0,6
14.10.2018 03:00:00 14,2 13,0 - - 4 2 - - S 1007,0 8 0 0,2
14.10.2018 02:00:00 13,2 12,3 - - 0 0 - - N 1007,6 20 0 0,0
14.10.2018 01:00:00 14,4 13,2 - - 8 4 - - SSW 1007,3 22 - 0,0
14.10.2018 00:00:00 14,8 13,5 - - 5 3 - - S 1006,9 20 0 0,2
13.10.2018 23:00:00 16,1 15,1 - - 15 8 - - WSW 1007,4 10 0 0,2
13.10.2018 22:00:00 17,6 15,9 - - 16 9 - - SW 1007,2 10 0 0,0
13.10.2018 21:00:00 19,2 15,8 - - 22 12 - - SW 1007,2 18 0 0,0
13.10.2018 20:00:00 18,6 15,7 - - 18 10 - - SSW 1007,4 10 0 0,0
13.10.2018 19:00:00 19,5 15,8 - - 22 12 - - SSW 1007,2 10 0 0,0
13.10.2018 18:00:00 19,3 15,7 - - 26 14 - - SSW 1006,5 10 0 0,0
13.10.2018 17:00:00 19,6 15,8 - - 24 13 - - SSW 1006,4 10 30 0,0
13.10.2018 16:00:00 19,9 16,0 - - 24 13 - - S 1006,5 15 60 0,0
13.10.2018 15:00:00 20,5 16,1 - - 24 13 - - S 1007,2 10 60 0,0
13.10.2018 14:00:00 20,8 16,5 - - 26 14 - - S 1007,8 10 12 0,0
13.10.2018 13:00:00 19,5 15,8 - - 26 14 - - S 1008,5 10 42 0,0
13.10.2018 12:00:00 19,8 15,8 - - 26 14 - - S 1008,8 20 6 0,0
13.10.2018 11:00:00 18,4 14,8 - - 22 12 - - S 1009,8 17 0 0,0
13.10.2018 10:00:00 18,3 14,6 14,4 13,7 26 14 - - S 1010,1 10 0 0,0
13.10.2018 09:00:00 17,7 15,6 - - 28 15 46 25 SSW 1009,8 17 0 0,6
13.10.2018 08:00:00 17,5 14,5 - - 31 17 48 26 S 1009,7 2,5 0 0,0
13.10.2018 07:00:00 18,5 13,6 - - 26 14 - - S 1009,4 10 0 0,0
13.10.2018 06:00:00 18,4 14,3 - - 24 13 - - S 1009,4 17 0 0,0
13.10.2018 05:00:00 18,8 14,7 - - 26 14 48 26 SSW 1009,8 18 0 0,0
13.10.2018 04:00:00 18,9 14,7 - - 28 15 - - S 1009,8 17 0 0,0
13.10.2018 03:00:00 18,6 14,9 - - 28 15 52 28 S 1010,3 16 0 0,0
13.10.2018 02:00:00 18,7 15,0 - - 28 15 50 27 SSW 1010,4 17 0 0,0
13.10.2018 01:00:00 18,4 15,0 - - 29 16 48 26 SSW 1010,5 16 - 0,0
13.10.2018 00:00:00 18,6 15,2 - - 29 16 52 28 SSW 1010,6 16 0 0,0
12.10.2018 23:00:00 18,9 15,2 - - 34 18 59 32 SSW 1010,7 15 0 0,0
12.10.2018 22:00:00 19,1 15,1 - - 29 16 55 30 SSW 1010,6 10 0 0,0
12.10.2018 21:00:00 19,0 14,9 - - 35 19 57 31 SSW 1010,4 10 0 0,0
12.10.2018 20:00:00 19,2 14,4 - - 35 19 59 32 SSW 1010,2 10 0 0,0
12.10.2018 19:00:00 18,7 14,4 - - 29 16 54 29 SSW 1010,3 10 0 0,0
12.10.2018 18:00:00 18,9 14,5 - - 35 19 57 31 SSW 1009,6 10 0 0,0
12.10.2018 17:00:00 18,9 14,6 - - 31 17 52 28 SSW 1009,2 10 0 0,0
12.10.2018 16:00:00 18,7 14,3 - - 31 17 52 28 S 1009,4 10 0 0,0
12.10.2018 15:00:00 18,5 14,0 - - 34 18 61 33 SSW 1009,2 17 0 0,0
12.10.2018 14:00:00 18,2 13,6 - - 34 18 57 31 S 1009,0 10 0 0,0
12.10.2018 13:00:00 17,9 12,8 - - 34 18 57 31 S 1009,0 10 0 0,0
12.10.2018 12:00:00 17,5 12,6 - - 31 17 59 32 S 1008,5 10 0 0,0
12.10.2018 11:00:00 17,1 13,1 - - 31 17 61 33 S 1008,8 10 0 0,2
12.10.2018 10:00:00 16,9 13,3 13,9 13,7 31 17 54 29 S 1008,3 10 0 0,2
12.10.2018 09:00:00 15,7 13,8 - - 31 17 57 31 S 1008,2 9 0 1,8
12.10.2018 08:00:00 15,8 13,7 - - 34 18 52 28 S 1007,9 6 0 0,6
12.10.2018 07:00:00 15,3 13,5 - - 31 17 50 27 S 1007,8 7 0 0,6
12.10.2018 06:00:00 16,0 13,3 - - 31 17 52 28 S 1007,2 11 0 0,0
12.10.2018 05:00:00 15,8 13,3 - - 34 18 48 26 S 1007,4 14 0 0,0
12.10.2018 04:00:00 16,0 12,8 - - 26 14 48 26 S 1007,3 16 0 0,0
12.10.2018 03:00:00 15,6 12,5 - - 26 14 48 26 S 1007,1 17 0 0,0
12.10.2018 02:00:00 15,1 11,3 - - 24 13 - - SSW 1007,5 19 0 0,0

tt = Température de l'air
td = dewpoint
tt -20cm = Température de l'air -20cm
tt -100cm = Température de l'air -100cm
ff = Vitesse du vent
fx = gusts
dd = Direction du vent
ppp = reduced air pressure
vv = visibility
sd = Ensoleillement
rr = Quantités de précipitations

stations d'obs. à proximité